When you browse on this site, cookies collect data to enhance your experience and personalize the content and advertising you see.
Visit our Privacy Policy to learn more. By continuing to use the site, you agree to this use of cookies and data.
  • In Czech Republic
  • List of Countries
  • For 7 days
  • Water Temperature
  • Satellite Maps
  • Weather Map
  • Weather Widgets
  • user-avatar
    Login

    Hourly Weather Praia

    Today, 19 December, Wednesday

    Time Temperature Precipitation Wind Pressure Humidity
    00:00 +17°C° 0 mm 7 mps 685 mmHg 18%
    01:00 +16°C° 0 mm 6 mps 685 mmHg 19%
    02:00 +15°C° 0 mm 6 mps 685 mmHg 20%
    03:00 +15°C° 0 mm 6 mps 685 mmHg 21%
    04:00 +14°C° 0 mm 6 mps 685 mmHg 23%
    05:00 +14°C° 0 mm 6 mps 685 mmHg 24%
    06:00 +14°C° 0 mm 7 mps 685 mmHg 25%
    07:00 +14°C° 0 mm 7 mps 685 mmHg 25%
    08:00 +13°C° 0 mm 8 mps 686 mmHg 25%
    09:00 +16°C° 0 mm 8 mps 686 mmHg 23%
    10:00 +18°C° 0 mm 8 mps 686 mmHg 21%
    11:00 +20°C° 0 mm 8 mps 686 mmHg 19%
    12:00 +22°C° 0 mm 8 mps 686 mmHg 16%
    13:00 +24°C° 0 mm 8 mps 686 mmHg 14%
    14:00 +26°C° 0 mm 7 mps 685 mmHg 12%
    15:00 +26°C° 0 mm 7 mps 685 mmHg 12%
    16:00 +24°C° 0 mm 7 mps 685 mmHg 13%
    17:00 +24°C° 0 mm 7 mps 684 mmHg 13%
    18:00 +22°C° 0 mm 7 mps 685 mmHg 15%
    19:00 +21°C° 0 mm 7 mps 685 mmHg 17%
    20:00 +19°C° 0 mm 6 mps 685 mmHg 19%
    21:00 +19°C° 0 mm 6 mps 685 mmHg 20%
    22:00 +17°C° 0 mm 7 mps 685 mmHg 22%
    23:00 +16°C° 0 mm 7 mps 685 mmHg 23%

    Tomorrow, 20 December, Thursday

    Time Temperature Precipitation Wind Pressure Humidity
    00:00 +16°C° 0 mm 7 mps 685 mmHg 24%
    01:00 +15°C° 0 mm 7 mps 685 mmHg 25%
    02:00 +15°C° 0 mm 7 mps 685 mmHg 26%
    03:00 +14°C° 0 mm 7 mps 685 mmHg 28%
    04:00 +14°C° 0 mm 7 mps 684 mmHg 29%
    05:00 +12°C° 0 mm 7 mps 684 mmHg 30%
    06:00 +12°C° 0 mm 7 mps 684 mmHg 31%
    07:00 +12°C° 0 mm 8 mps 685 mmHg 33%
    08:00 +12°C° 0 mm 8 mps 685 mmHg 34%
    09:00 +15°C° 0 mm 9 mps 685 mmHg 30%
    10:00 +17°C° 0 mm 9 mps 686 mmHg 26%
    11:00 +19°C° 0 mm 9 mps 686 mmHg 22%
    12:00 +21°C° 0 mm 9 mps 686 mmHg 19%
    13:00 +23°C° 0 mm 9 mps 685 mmHg 17%
    14:00 +24°C° 0 mm 8 mps 685 mmHg 14%
    15:00 +24°C° 0 mm 8 mps 685 mmHg 14%
    16:00 +24°C° 0 mm 8 mps 684 mmHg 14%
    17:00 +24°C° 0 mm 8 mps 684 mmHg 14%
    18:00 +22°C° 0 mm 8 mps 684 mmHg 17%
    19:00 +21°C° 0 mm 7 mps 685 mmHg 20%
    20:00 +20°C° 0 mm 7 mps 685 mmHg 22%
    21:00 +18°C° 0 mm 8 mps 685 mmHg 25%
    22:00 +17°C° 0 mm 8 mps 685 mmHg 27%
    23:00 +16°C° 0 mm 8 mps 685 mmHg 29%

    Day after tomorrow, 21 December, Friday

    Time Temperature Precipitation Wind Pressure Humidity
    00:00 +16°C° 0 mm 8 mps 685 mmHg 30%
    01:00 +15°C° 0 mm 8 mps 685 mmHg 32%
    02:00 +13°C° 0 mm 8 mps 685 mmHg 33%
    03:00 +13°C° 0 mm 8 mps 684 mmHg 35%
    04:00 +12°C° 0 mm 8 mps 684 mmHg 37%
    05:00 +12°C° 0 mm 7 mps 684 mmHg 38%
    06:00 +12°C° 0 mm 8 mps 684 mmHg 39%
    07:00 +11°C° 0 mm 8 mps 685 mmHg 39%
    08:00 +11°C° 0 mm 8 mps 685 mmHg 39%
    09:00 +13°C° 0 mm 8 mps 685 mmHg 33%
    10:00 +17°C° 0 mm 8 mps 686 mmHg 27%
    11:00 +20°C° 0 mm 8 mps 686 mmHg 22%
    12:00 +21°C° 0 mm 8 mps 685 mmHg 19%
    13:00 +23°C° 0 mm 8 mps 685 mmHg 16%
    14:00 +26°C° 0 mm 7 mps 684 mmHg 13%
    15:00 +26°C° 0 mm 7 mps 684 mmHg 13%
    16:00 +26°C° 0 mm 7 mps 684 mmHg 12%
    17:00 +24°C° 0 mm 7 mps 683 mmHg 12%
    18:00 +23°C° 0 mm 7 mps 684 mmHg 13%
    19:00 +21°C° 0 mm 7 mps 684 mmHg 15%
    20:00 +18°C° 0 mm 7 mps 684 mmHg 17%
    21:00 +18°C° 0 mm 7 mps 684 mmHg 18%
    22:00 +17°C° 0 mm 8 mps 685 mmHg 20%
    23:00 +16°C° 0 mm 8 mps 685 mmHg 22%

    22 December, Saturday

    Time Temperature Precipitation Wind Pressure Humidity
    00:00 +15°C° 0 mm 8 mps 684 mmHg 23%
    01:00 +15°C° 0 mm 7 mps 684 mmHg 24%
    02:00 +14°C° 0 mm 7 mps 684 mmHg 26%
    03:00 +12°C° 0 mm 7 mps 683 mmHg 27%
    04:00 +12°C° 0 mm 7 mps 683 mmHg 29%
    05:00 +11°C° 0 mm 7 mps 683 mmHg 31%
    06:00 +11°C° 0 mm 7 mps 683 mmHg 31%
    07:00 +11°C° 0 mm 7 mps 684 mmHg 32%
    08:00 +11°C° 0 mm 8 mps 684 mmHg 32%
    09:00 +13°C° 0 mm 8 mps 684 mmHg 28%
    10:00 +16°C° 0 mm 8 mps 685 mmHg 24%
    11:00 +18°C° 0 mm 8 mps 685 mmHg 20%
    12:00 +21°C° 0 mm 7 mps 684 mmHg 17%
    13:00 +23°C° 0 mm 7 mps 684 mmHg 15%
    14:00 +24°C° 0 mm 7 mps 683 mmHg 12%
    15:00 +24°C° 0 mm 7 mps 683 mmHg 12%
    16:00 +24°C° 0 mm 7 mps 683 mmHg 12%
    17:00 +24°C° 0 mm 7 mps 683 mmHg 12%
    18:00 +22°C° 0 mm 7 mps 683 mmHg 14%
    19:00 +20°C° 0 mm 7 mps 683 mmHg 16%
    20:00 +18°C° 0 mm 7 mps 684 mmHg 17%
    21:00 +17°C° 0 mm 7 mps 684 mmHg 19%
    22:00 +16°C° 0 mm 7 mps 684 mmHg 20%
    23:00 +15°C° 0 mm 8 mps 684 mmHg 22%

    23 December, Sunday

    Time Temperature Precipitation Wind Pressure Humidity
    00:00 +15°C° 0 mm 7 mps 684 mmHg 23%
    01:00 +14°C° 0 mm 7 mps 683 mmHg 24%
    02:00 +14°C° 0 mm 7 mps 683 mmHg 25%
    03:00 +12°C° 0 mm 7 mps 683 mmHg 27%
    04:00 +11°C° 0 mm 7 mps 683 mmHg 28%
    05:00 +11°C° 0 mm 7 mps 682 mmHg 30%
    06:00 +11°C° 0 mm 7 mps 683 mmHg 31%
    07:00 +11°C° 0 mm 8 mps 683 mmHg 32%
    08:00 +11°C° 0 mm 8 mps 684 mmHg 34%
    09:00 +13°C° 0 mm 8 mps 684 mmHg 30%
    10:00 +16°C° 0 mm 8 mps 684 mmHg 25%
    11:00 +18°C° 0 mm 7 mps 685 mmHg 21%
    12:00 +21°C° 0 mm 7 mps 684 mmHg 18%
    13:00 +23°C° 0 mm 7 mps 684 mmHg 15%
    14:00 +26°C° 0 mm 7 mps 683 mmHg 12%
    15:00 +24°C° 0 mm 7 mps 683 mmHg 12%
    16:00 +24°C° 0 mm 7 mps 683 mmHg 12%
    17:00 +24°C° 0 mm 7 mps 683 mmHg 12%
    18:00 +22°C° 0 mm 7 mps 683 mmHg 15%
    19:00 +21°C° 0 mm 7 mps 683 mmHg 17%
    20:00 +18°C° 0 mm 7 mps 684 mmHg 19%
    21:00 +17°C° 0 mm 7 mps 684 mmHg 21%
    22:00 +16°C° 0 mm 7 mps 684 mmHg 22%
    23:00 +16°C° 0 mm 7 mps 684 mmHg 24%

    24 December, Monday

    Time Temperature Precipitation Wind Pressure Humidity
    00:00 +15°C° 0 mm 7 mps 684 mmHg 25%
    01:00 +14°C° 0 mm 7 mps 683 mmHg 26%
    02:00 +14°C° 0 mm 7 mps 683 mmHg 27%
    03:00 +12°C° 0 mm 7 mps 683 mmHg 28%
    04:00 +13°C° 0 mm 6 mps 683 mmHg 29%
    05:00 +11°C° 0 mm 6 mps 683 mmHg 31%
    06:00 +11°C° 0 mm 7 mps 683 mmHg 32%
    07:00 +11°C° 0 mm 7 mps 683 mmHg 33%
    08:00 +11°C° 0 mm 7 mps 684 mmHg 34%
    09:00 +15°C° 0 mm 7 mps 684 mmHg 30%
    10:00 +17°C° 0 mm 7 mps 684 mmHg 26%
    11:00 +20°C° 0 mm 7 mps 685 mmHg 22%
    12:00 +22°C° 0 mm 6 mps 684 mmHg 19%
    13:00 +24°C° 0 mm 6 mps 684 mmHg 16%
    14:00 +27°C° 0 mm 5 mps 683 mmHg 13%
    15:00 +27°C° 0 mm 5 mps 683 mmHg 13%
    16:00 +27°C° 0 mm 5 mps 683 mmHg 12%
    17:00 +27°C° 0 mm 6 mps 682 mmHg 12%
    18:00 +24°C° 0 mm 6 mps 683 mmHg 15%
    19:00 +22°C° 0 mm 6 mps 683 mmHg 18%
    20:00 +20°C° 0 mm 6 mps 683 mmHg 21%
    21:00 +19°C° 0 mm 6 mps 683 mmHg 24%
    22:00 +18°C° 0 mm 7 mps 683 mmHg 26%
    23:00 +17°C° 0 mm 7 mps 683 mmHg 28%
    Show more